Regional Weather Roundup
Issued by NWS Cleveland, OH

Home | Current Version | Previous Version | Graphics & Text | Print | Product List | Glossary On
Versions: 1 2 3 4 5 6 7 8 9 10 11 12 13 14 15 16 17 18 19 20 21 22 23 24 25 26 27 28 29 30 31 32 33 34 35 36 37 38 39 40 41 42 43 44 45 46 47 48 49 50
361
ASUS41 KCLE 302112
RWRCLE
OHIO REGIONAL WEATHER ROUNDUP
NATIONAL WEATHER SERVICE WILMINGTON, OH
500 PM EDT FRI SEP 30 2016

NOTE: "FAIR" INDICATES FEW OR NO CLOUDS BELOW 12,000 FEET WITH NO
SIGNIFICANT WEATHER AND/OR OBSTRUCTIONS TO VISIBILITY.

OHZ001>008-015>018-024>027-034-035-043-044-302200-
   NORTHWEST OHIO

CITY           SKY/WX    TMP DP  RH WIND       PRES   REMARKS
DEFIANCE       LGT RAIN  64  59  83 SE5       30.06R
FINDLAY        LGT RAIN  63  56  78 E10       30.07R
TOLEDO EXPRESS CLOUDY    62  61  96 E7        30.07S
TOLEDO EXEC    CLOUDY    63  60  90 E9        30.07S
LIMA           LGT RAIN  60  60 100 N10G22    30.00F
$$

OHZ009>014-019>023-028>033-038-089-302200-
   NORTHEAST OHIO

CITY           SKY/WX    TMP DP  RH WIND       PRES   REMARKS
CLE-HOPKINS    LGT RAIN  62  57  83 NE12      30.08F
CLE-LAKEFRONT  CLOUDY    62  59  90 NE7       30.07F FOG
CUY CO. ARPT   LGT RAIN  61  59  94 E9        30.10S FOG
LORAIN-ELYRIA  CLOUDY    60  57  89 E6        30.07F
ASHTABULA      CLOUDY    63  58  83 SE6       30.14R
AKRON-CANTON   CLOUDY    60  57  89 E16       30.06F
WOOSTER        CLOUDY    61  58  90 E12       30.05F
MANSFIELD      CLOUDY    61  58  90 E10G20    30.04S
YOUNGSTOWN     LGT RAIN  60  55  83 E9        30.11F
$$

OHZ042-051>053-060>062-070>072-077>081-302200-
  SOUTHWEST OHIO

CITY           SKY/WX    TMP DP  RH WIND       PRES   REMARKS
CINC-COVINGTON PTSUNNY   67  54  63 S8        29.99S
CINC-LUNKEN    FAIR      66  56  70 S6        30.00S
HAMILTON       PTSUNNY   68  56  65 SW7       29.99F
DAYTON         CLOUDY    62  59  90 E8        30.01S
WRIGHT-PAT AFB CLOUDY    64  62  94 E8        29.99S
DAYTON GENERAL PTSUNNY   65  57  75 CALM      29.99S
WILMINGTON     FAIR      63  57  81 SW5       30.00S
$$

OHZ036-037-039>041-045>050-054>059-063>069-073>076-082>088-302200-
  CENTRAL AND SOUTHEAST OHIO

CITY           SKY/WX    TMP DP  RH WIND       PRES   REMARKS
COLUMBUS       PTSUNNY   62  61  96 N6        30.00R
OSU AIRPORT    CLOUDY    64  61  90 NE8       30.01R
BOLTON FIELD   CLOUDY    64  61  88 E8        30.01S
RICKENBACK AFB CLOUDY    62  61  98 NE3       30.00R
NEWARK         CLOUDY    66  59  78 VRB5      30.00R
MARION         TSTM      60  58  92 NE7       30.05R VSB 3/4
LANCASTER      CLOUDY    65  62  90 CALM      30.01R
ZANESVILLE     CLOUDY    68  60  75 E9        30.00F
NEW PHILLY     CLOUDY    64  61  90 E10G20    30.05R
$$




USA.gov is the U.S. government's official web portal to all federal, state and local government web resources and services.